Time,TemperatureF,DewpointF,PressureIn,WindDirection,WindDirectionDegrees,WindSpeedMPH,WindSpeedGustMPH,Humidity,HourlyPrecipIn,Conditions,Clouds,dailyrainin,SoftwareType,DateUTC
2013-05-28 00:04:00,42.3,40.1,30.11,West,270,0.0,-999.0,92,-99.99,,,0.00,Acu-Link.com,2013-05-28 04:04:00,
2013-05-28 00:19:00,41.7,39.8,30.11,West,270,0.0,-999.0,93,-99.99,,,0.00,Acu-Link.com,2013-05-28 04:19:00,
2013-05-28 00:34:00,41.5,39.9,30.11,West,270,0.0,-999.0,94,-99.99,,,0.00,Acu-Link.com,2013-05-28 04:34:00,
2013-05-28 00:49:00,41.4,40.1,30.12,West,270,0.0,-999.0,95,-99.99,,,0.00,Acu-Link.com,2013-05-28 04:49:00,
2013-05-28 01:04:00,41.0,39.7,30.12,West,270,0.0,-999.0,95,-99.99,,,0.00,Acu-Link.com,2013-05-28 05:04:00,
2013-05-28 01:19:00,40.6,39.6,30.12,West,270,0.0,-999.0,96,-99.99,,,0.00,Acu-Link.com,2013-05-28 05:19:00,
2013-05-28 01:34:00,40.3,39.3,30.12,West,270,0.0,-999.0,96,-99.99,,,0.00,Acu-Link.com,2013-05-28 05:34:00,
2013-05-28 01:49:00,39.9,38.9,30.12,West,270,0.0,-999.0,96,-99.99,,,0.00,Acu-Link.com,2013-05-28 05:49:00,
2013-05-28 02:05:00,39.7,38.9,30.12,West,270,0.0,-999.0,97,-99.99,,,0.00,Acu-Link.com,2013-05-28 06:05:00,
2013-05-28 02:20:00,39.2,38.4,30.12,West,270,0.0,-999.0,97,-99.99,,,0.00,Acu-Link.com,2013-05-28 06:20:00,
2013-05-28 02:35:00,39.2,38.4,30.12,West,270,0.0,-999.0,97,-99.99,,,0.00,Acu-Link.com,2013-05-28 06:35:00,
2013-05-28 02:50:00,38.8,38.0,30.12,West,270,0.0,-999.0,97,-99.99,,,0.00,Acu-Link.com,2013-05-28 06:50:00,
2013-05-28 03:05:00,38.5,37.7,30.12,West,270,0.0,-999.0,97,-99.99,,,0.00,Acu-Link.com,2013-05-28 07:05:00,
2013-05-28 03:20:00,38.1,37.6,30.12,West,270,0.0,-999.0,98,-99.99,,,0.00,Acu-Link.com,2013-05-28 07:20:00,
2013-05-28 03:35:00,37.9,37.4,30.12,West,270,0.0,-999.0,98,-99.99,,,0.00,Acu-Link.com,2013-05-28 07:35:00,
2013-05-28 03:50:00,37.6,36.8,30.12,West,270,0.0,-999.0,97,-99.99,,,0.00,Acu-Link.com,2013-05-28 07:50:00,
2013-05-28 04:06:00,37.6,37.1,30.12,West,270,0.0,-999.0,98,-99.99,,,0.00,Acu-Link.com,2013-05-28 08:06:00,
2013-05-28 04:21:00,37.6,37.1,30.13,West,270,0.0,-999.0,98,-99.99,,,0.00,Acu-Link.com,2013-05-28 08:21:00,
2013-05-28 04:37:00,37.2,36.7,30.12,West,270,0.0,-999.0,98,-99.99,,,0.00,Acu-Link.com,2013-05-28 08:37:00,
2013-05-28 04:52:00,37.2,36.7,30.13,West,270,0.0,-999.0,98,-99.99,,,0.00,Acu-Link.com,2013-05-28 08:52:00,
2013-05-28 05:07:00,36.9,36.6,30.13,West,270,0.0,-999.0,99,-99.99,,,0.00,Acu-Link.com,2013-05-28 09:07:00,
2013-05-28 05:22:00,36.3,36.0,30.14,West,270,0.0,-999.0,99,-99.99,,,0.00,Acu-Link.com,2013-05-28 09:22:00,
2013-05-28 05:37:00,36.5,36.2,30.14,West,270,0.0,-999.0,99,-99.99,,,0.00,Acu-Link.com,2013-05-28 09:37:00,
2013-05-28 05:52:00,36.5,36.2,30.15,West,270,0.0,-999.0,99,-99.99,,,0.00,Acu-Link.com,2013-05-28 09:52:00,
2013-05-28 06:08:00,36.7,36.4,30.16,West,270,0.0,-999.0,99,-99.99,,,0.00,Acu-Link.com,2013-05-28 10:08:00,
2013-05-28 06:23:00,37.4,37.1,30.16,West,270,0.0,-999.0,99,-99.99,,,0.00,Acu-Link.com,2013-05-28 10:23:00,
2013-05-28 06:38:00,38.1,37.8,30.16,West,270,0.0,-999.0,99,-99.99,,,0.00,Acu-Link.com,2013-05-28 10:38:00,
2013-05-28 06:53:00,39.2,38.4,30.16,West,270,0.0,-999.0,97,-99.99,,,0.00,Acu-Link.com,2013-05-28 10:53:00,
2013-05-28 07:08:00,40.6,39.6,30.16,West,270,0.0,-999.0,96,-99.99,,,0.00,Acu-Link.com,2013-05-28 11:08:00,
2013-05-28 07:23:00,41.9,40.3,30.17,West,270,0.0,-999.0,94,-99.99,,,0.00,Acu-Link.com,2013-05-28 11:23:00,
2013-05-28 07:38:00,44.4,42.2,30.16,West,270,0.0,-999.0,92,-99.99,,,0.00,Acu-Link.com,2013-05-28 11:38:00,
2013-05-28 07:53:00,46.4,43.6,30.16,West,270,0.0,-999.0,90,-99.99,,,0.00,Acu-Link.com,2013-05-28 11:53:00,
2013-05-28 08:08:00,49.5,45.2,30.15,West,270,0.0,-999.0,85,-99.99,,,0.00,Acu-Link.com,2013-05-28 12:08:00,
2013-05-28 08:23:00,54.0,45.5,30.15,West,270,0.0,-999.0,73,-99.99,,,0.00,Acu-Link.com,2013-05-28 12:23:00,
2013-05-28 08:39:00,54.9,44.9,30.15,East,90,0.0,-999.0,69,-99.99,,,0.00,Acu-Link.com,2013-05-28 12:39:00,
2013-05-28 08:54:00,57.2,43.0,30.15,WNW,292,1.1,-999.0,59,-99.99,,,0.00,Acu-Link.com,2013-05-28 12:54:00,
2013-05-28 09:09:00,59.5,43.8,30.15,SSW,202,1.1,-999.0,56,-99.99,,,0.00,Acu-Link.com,2013-05-28 13:09:00,
2013-05-28 09:24:00,58.8,44.5,30.15,ENE,67,1.7,-999.0,59,-99.99,,,0.00,Acu-Link.com,2013-05-28 13:24:00,
2013-05-28 09:39:00,60.6,43.4,30.14,NNW,337,1.1,-999.0,53,-99.99,,,0.00,Acu-Link.com,2013-05-28 13:39:00,
2013-05-28 09:54:00,61.9,43.6,30.14,WNW,292,1.7,-999.0,51,-99.99,,,0.00,Acu-Link.com,2013-05-28 13:54:00,
2013-05-28 10:09:00,61.2,44.9,30.14,ENE,67,3.2,-999.0,55,-99.99,,,0.00,Acu-Link.com,2013-05-28 14:09:00,
2013-05-28 10:24:00,62.8,42.8,30.14,West,270,1.7,-999.0,48,-99.99,,,0.00,Acu-Link.com,2013-05-28 14:24:00,
2013-05-28 10:39:00,63.7,42.5,30.14,West,270,2.2,-999.0,46,-99.99,,,0.00,Acu-Link.com,2013-05-28 14:39:00,
2013-05-28 10:55:00,64.8,39.9,30.14,East,90,3.7,-999.0,40,-99.99,,,0.00,Acu-Link.com,2013-05-28 14:55:00,
2013-05-28 11:10:00,64.6,38.4,30.14,NW,315,2.2,-999.0,38,-99.99,,,0.00,Acu-Link.com,2013-05-28 15:10:00,
2013-05-28 11:25:00,65.3,39.7,30.14,SE,135,4.2,-999.0,39,-99.99,,,0.00,Acu-Link.com,2013-05-28 15:25:00,
2013-05-28 11:40:00,67.8,40.6,30.13,SSW,202,2.2,-999.0,37,-99.99,,,0.00,Acu-Link.com,2013-05-28 15:40:00,
2013-05-28 11:55:00,67.1,41.3,30.13,SW,225,3.2,-999.0,39,-99.99,,,0.00,Acu-Link.com,2013-05-28 15:55:00,
2013-05-28 12:10:00,68.0,40.0,30.13,South,180,3.2,-999.0,36,-99.99,,,0.00,Acu-Link.com,2013-05-28 16:10:00,
2013-05-28 12:25:00,69.3,40.5,30.12,WNW,292,3.2,-999.0,35,-99.99,,,0.00,Acu-Link.com,2013-05-28 16:25:00,
2013-05-28 12:40:00,67.8,42.6,30.12,ESE,112,2.2,-999.0,40,-99.99,,,0.00,Acu-Link.com,2013-05-28 16:40:00,
2013-05-28 12:55:00,67.5,42.3,30.11,WNW,292,0.0,-999.0,40,-99.99,,,0.00,Acu-Link.com,2013-05-28 16:55:00,
2013-05-28 13:11:00,69.4,42.7,30.10,NW,315,1.7,-999.0,38,-99.99,,,0.00,Acu-Link.com,2013-05-28 17:11:00,
2013-05-28 13:26:00,68.5,39.8,30.09,WSW,247,2.2,-999.0,35,-99.99,,,0.00,Acu-Link.com,2013-05-28 17:26:00,
2013-05-28 13:41:00,70.3,41.3,30.09,South,180,1.1,-999.0,35,-99.99,,,0.00,Acu-Link.com,2013-05-28 17:41:00,
2013-05-28 13:56:00,68.7,44.0,30.09,NE,45,2.2,-999.0,41,-99.99,,,0.00,Acu-Link.com,2013-05-28 17:56:00,
2013-05-28 14:11:00,69.8,41.6,30.08,NNE,22,1.7,-999.0,36,-99.99,,,0.00,Acu-Link.com,2013-05-28 18:11:00,
2013-05-28 14:26:00,70.2,42.7,30.08,SW,225,4.2,-999.0,37,-99.99,,,0.00,Acu-Link.com,2013-05-28 18:26:00,
2013-05-28 14:41:00,70.3,42.8,30.08,SSW,202,2.2,-999.0,37,-99.99,,,0.00,Acu-Link.com,2013-05-28 18:41:00,
2013-05-28 14:56:00,69.6,42.2,30.07,NNE,22,1.7,-999.0,37,-99.99,,,0.00,Acu-Link.com,2013-05-28 18:56:00,
2013-05-28 15:11:00,69.8,43.7,30.07,South,180,1.7,-999.0,39,-99.99,,,0.00,Acu-Link.com,2013-05-28 19:11:00,
2013-05-28 15:27:00,70.3,40.6,30.06,WSW,247,1.7,-999.0,34,-99.99,,,0.00,Acu-Link.com,2013-05-28 19:27:00,
2013-05-28 15:42:00,69.6,42.9,30.06,NW,315,0.0,-999.0,38,-99.99,,,0.00,Acu-Link.com,2013-05-28 19:42:00,
2013-05-28 15:57:00,70.0,41.8,30.07,West,270,1.7,-999.0,36,-99.99,,,0.00,Acu-Link.com,2013-05-28 19:57:00,
2013-05-28 16:12:00,69.6,44.2,30.06,East,90,1.7,-999.0,40,-99.99,,,0.00,Acu-Link.com,2013-05-28 20:12:00,
2013-05-28 16:27:00,70.0,44.6,30.06,ENE,67,0.0,-999.0,40,-99.99,,,0.00,Acu-Link.com,2013-05-28 20:27:00,
2013-05-28 16:42:00,69.8,44.4,30.06,NW,315,2.2,-999.0,40,-99.99,,,0.00,Acu-Link.com,2013-05-28 20:42:00,
2013-05-28 16:57:00,69.3,44.6,30.05,SSW,202,3.2,-999.0,41,-99.99,,,0.00,Acu-Link.com,2013-05-28 20:57:00,
2013-05-28 17:12:00,69.4,44.0,30.05,NNE,22,1.7,-999.0,40,-99.99,,,0.00,Acu-Link.com,2013-05-28 21:12:00,
2013-05-28 17:27:00,69.3,44.6,30.04,WSW,247,1.7,-999.0,41,-99.99,,,0.00,Acu-Link.com,2013-05-28 21:27:00,
2013-05-28 17:43:00,69.1,44.4,30.04,WNW,292,1.7,-999.0,41,-99.99,,,0.00,Acu-Link.com,2013-05-28 21:43:00,
2013-05-28 17:58:00,68.5,43.9,30.03,NNE,22,1.7,-999.0,41,-99.99,,,0.00,Acu-Link.com,2013-05-28 21:58:00,
2013-05-28 18:13:00,68.0,44.0,30.03,NNW,337,0.0,-999.0,42,-99.99,,,0.00,Acu-Link.com,2013-05-28 22:13:00,
2013-05-28 18:28:00,67.6,43.7,30.04,NNE,22,0.0,-999.0,42,-99.99,,,0.00,Acu-Link.com,2013-05-28 22:28:00,
2013-05-28 18:43:00,67.5,41.0,30.04,ESE,112,2.2,-999.0,38,-99.99,,,0.00,Acu-Link.com,2013-05-28 22:43:00,
2013-05-28 18:58:00,66.7,41.0,30.04,SSE,157,0.0,-999.0,39,-99.99,,,0.00,Acu-Link.com,2013-05-28 22:58:00,
2013-05-28 19:13:00,65.7,41.4,30.04,WSW,247,0.0,-999.0,41,-99.99,,,0.00,Acu-Link.com,2013-05-28 23:13:00,
2013-05-28 19:28:00,64.0,45.5,30.04,NW,315,0.0,-999.0,51,-99.99,,,0.00,Acu-Link.com,2013-05-28 23:28:00,
2013-05-28 19:43:00,63.0,48.0,30.04,NW,315,0.0,-999.0,58,-99.99,,,0.00,Acu-Link.com,2013-05-28 23:43:00,
2013-05-28 19:59:00,61.3,47.7,30.04,NW,315,0.0,-999.0,61,-99.99,,,0.00,Acu-Link.com,2013-05-28 23:59:00,
2013-05-28 20:14:00,59.7,46.7,30.04,NW,315,0.0,-999.0,62,-99.99,,,0.00,Acu-Link.com,2013-05-29 00:14:00,
2013-05-28 20:29:00,58.8,47.5,30.03,NW,315,0.0,-999.0,66,-99.99,,,0.00,Acu-Link.com,2013-05-29 00:29:00,
2013-05-28 20:44:00,57.9,47.8,30.03,NW,315,0.0,-999.0,69,-99.99,,,0.00,Acu-Link.com,2013-05-29 00:44:00,
2013-05-28 20:59:00,57.0,47.7,30.04,NW,315,0.0,-999.0,71,-99.99,,,0.00,Acu-Link.com,2013-05-29 00:59:00,
2013-05-28 21:14:00,56.1,47.9,30.04,NW,315,0.0,-999.0,74,-99.99,,,0.00,Acu-Link.com,2013-05-29 01:14:00,
2013-05-28 21:29:00,55.6,47.4,30.04,NW,315,0.0,-999.0,74,-99.99,,,0.00,Acu-Link.com,2013-05-29 01:29:00,
2013-05-28 21:44:00,55.2,47.4,30.05,NW,315,0.0,-999.0,75,-99.99,,,0.00,Acu-Link.com,2013-05-29 01:44:00,
2013-05-28 21:59:00,54.3,47.2,30.05,NW,315,0.0,-999.0,77,-99.99,,,0.00,Acu-Link.com,2013-05-29 01:59:00,
2013-05-28 22:15:00,54.0,47.6,30.06,NW,315,0.0,-999.0,79,-99.99,,,0.00,Acu-Link.com,2013-05-29 02:15:00,
2013-05-28 22:30:00,54.0,48.3,30.05,NW,315,0.0,-999.0,81,-99.99,,,0.00,Acu-Link.com,2013-05-29 02:30:00,
2013-05-28 22:45:00,53.8,48.1,30.05,NW,315,0.0,-999.0,81,-99.99,,,0.00,Acu-Link.com,2013-05-29 02:45:00,
2013-05-28 23:00:00,54.1,48.4,30.06,NW,315,0.0,-999.0,81,-99.99,,,0.00,Acu-Link.com,2013-05-29 03:00:00,
2013-05-28 23:15:00,54.5,48.1,30.06,NW,315,0.0,-999.0,79,-99.99,,,0.00,Acu-Link.com,2013-05-29 03:15:00,
2013-05-28 23:30:00,54.9,48.2,30.06,NW,315,0.0,-999.0,78,-99.99,,,0.00,Acu-Link.com,2013-05-29 03:30:00,
2013-05-28 23:45:00,55.8,48.7,30.06,NW,315,0.0,-999.0,77,-99.99,,,0.00,Acu-Link.com,2013-05-29 03:45:00,